LGX29D EPPO-LICA

Flight info

Callsign LGX29D
Flight time 2h 9m
Altitude 37000
Route XIDNA2B XIDNA L617 ARMEX L619 NUDRO L617 REGLI DCT OGDAS DCT VALPI DCT VAMOG DCT KOPRY DCT TEBLI DCT SPL DCT KATTI DCT DIVKU DCT INGAB DCT ARBUM ARBUM2R
Aircraft B38M/M-SDE1FGHILORVWXY/HB1

Departure

Time 2026-04-22 13:53
Airport Poznań-Ławica Airport (EPPO)

Arrival

Time 2026-04-22 16:03
Airport Lamezia Terme Sant'Eufemia International Airport (LICA)
Time Latitude Longitude Altitude Speed Heading
2026-04-22 13:32 52.41590 16.82913 292 ft 0 kts 192°
2026-04-22 13:47 52.41612 16.82920 290 ft 4 kts 187°
2026-04-22 13:47 52.41638 16.82920 293 ft 4 kts 167°
2026-04-22 13:47 52.41658 16.82902 294 ft 4 kts 111°
2026-04-22 13:47 52.41659 16.82894 293 ft 1 kts 103°
2026-04-22 13:50 52.41657 16.82913 296 ft 6 kts 103°
2026-04-22 13:50 52.41638 16.83041 294 ft 18 kts 103°
2026-04-22 13:50 52.41604 16.83283 291 ft 24 kts 102°
2026-04-22 13:51 52.41572 16.83564 294 ft 26 kts 95°
2026-04-22 13:51 52.41568 16.83847 290 ft 21 kts 81°
2026-04-22 13:51 52.41673 16.84002 291 ft 22 kts 20°
2026-04-22 13:51 52.41740 16.84043 296 ft 0 kts 20°
2026-04-22 13:52 52.41748 16.84048 294 ft 3 kts 20°
2026-04-22 13:52 52.41797 16.84068 291 ft 11 kts 355°
2026-04-22 13:52 52.41839 16.83984 292 ft 0 kts 287°
2026-04-22 13:53 52.41871 16.83820 298 ft 48 kts 288°
2026-04-22 13:53 52.42046 16.82919 288 ft 116 kts 287°
2026-04-22 13:53 52.42351 16.81336 371 ft 170 kts 289°
2026-04-22 13:53 52.42723 16.79429 1188 ft 176 kts 288°
2026-04-22 13:54 52.43071 16.77525 2280 ft 180 kts 289°
2026-04-22 13:54 52.43444 16.75428 2905 ft 205 kts 289°
2026-04-22 13:54 52.43897 16.73101 3584 ft 225 kts 291°
2026-04-22 13:54 52.44401 16.70573 4392 ft 240 kts 291°
2026-04-22 13:55 52.44911 16.67971 5517 ft 241 kts 291°
2026-04-22 13:55 52.45418 16.65355 6506 ft 248 kts 291°
2026-04-22 13:55 52.45942 16.62631 7443 ft 253 kts 291°
2026-04-22 13:55 52.46477 16.59828 8340 ft 260 kts 291°
2026-04-22 13:56 52.47019 16.56982 9290 ft 265 kts 292°
2026-04-22 13:56 52.47390 16.53982 10188 ft 277 kts 274°
2026-04-22 13:56 52.46954 16.50818 10836 ft 295 kts 248°
2026-04-22 13:56 52.45710 16.48052 10936 ft 315 kts 223°
2026-04-22 13:57 52.43723 16.46354 11422 ft 333 kts 194°
2026-04-22 13:57 52.41362 16.46173 11846 ft 349 kts 167°
2026-04-22 13:57 52.39118 16.47727 12376 ft 355 kts 140°
2026-04-22 13:57 52.37482 16.50695 13003 ft 354 kts 115°
2026-04-22 13:58 52.36725 16.54417 13766 ft 347 kts 92°
2026-04-22 13:58 52.36766 16.58354 14455 ft 349 kts 84°
2026-04-22 13:58 52.36503 16.62327 15207 ft 357 kts 103°
2026-04-22 13:58 52.35548 16.66124 15906 ft 366 kts 116°
2026-04-22 13:59 52.33909 16.69348 16662 ft 375 kts 136°
2026-04-22 13:59 52.31667 16.71597 17339 ft 385 kts 155°
2026-04-22 13:59 52.29037 16.72599 18037 ft 393 kts 174°
2026-04-22 13:59 52.26300 16.72195 18666 ft 400 kts 193°
2026-04-22 14:00 52.23623 16.70836 19212 ft 404 kts 195°
2026-04-22 14:00 52.20916 16.69484 19753 ft 408 kts 195°
2026-04-22 14:00 52.18203 16.68126 20316 ft 410 kts 193°
2026-04-22 14:00 52.15387 16.67558 20840 ft 406 kts 173°
2026-04-22 14:01 52.12665 16.68370 21346 ft 402 kts 156°
2026-04-22 14:01 52.10081 16.70071 21849 ft 403 kts 152°
2026-04-22 14:01 52.07503 16.71892 22389 ft 405 kts 151°
2026-04-22 14:01 52.04929 16.73765 22973 ft 407 kts 150°
2026-04-22 14:02 52.02343 16.75675 23470 ft 410 kts 150°
2026-04-22 14:02 51.99746 16.77611 23958 ft 412 kts 150°
2026-04-22 14:02 51.97137 16.79562 24416 ft 414 kts 150°
2026-04-22 14:02 51.94530 16.81513 24868 ft 415 kts 150°
2026-04-22 14:03 51.91902 16.83477 25329 ft 417 kts 149°
2026-04-22 14:03 51.89260 16.85449 25743 ft 419 kts 149°
2026-04-22 14:03 51.86605 16.87428 26180 ft 421 kts 149°
2026-04-22 14:03 51.83939 16.89414 26603 ft 423 kts 149°
2026-04-22 14:04 51.81268 16.91400 27006 ft 424 kts 149°
2026-04-22 14:04 51.78578 16.93398 27412 ft 426 kts 149°
2026-04-22 14:04 51.75878 16.95400 27819 ft 428 kts 149°
2026-04-22 14:04 51.73174 16.97404 28202 ft 429 kts 148°
2026-04-22 14:05 51.70462 16.99393 28587 ft 432 kts 151°
2026-04-22 14:05 51.67638 17.01136 28975 ft 436 kts 152°
2026-04-22 14:05 51.61961 17.04654 29706 ft 438 kts 152°
2026-04-22 14:06 51.59108 17.06437 30051 ft 440 kts 152°
2026-04-22 14:06 51.56249 17.08224 30389 ft 442 kts 152°
2026-04-22 14:06 51.53383 17.10015 30675 ft 444 kts 151°
2026-04-22 14:06 51.50490 17.11818 30920 ft 447 kts 152°
2026-04-22 14:07 51.47593 17.13598 31177 ft 449 kts 152°
2026-04-22 14:07 51.44672 17.15391 31454 ft 451 kts 152°
2026-04-22 14:07 51.41738 17.17190 31774 ft 451 kts 152°
2026-04-22 14:07 51.38803 17.18988 32089 ft 452 kts 152°
2026-04-22 14:08 51.35864 17.20786 32399 ft 452 kts 152°
2026-04-22 14:08 51.32926 17.22581 32709 ft 453 kts 152°
2026-04-22 14:08 51.30014 17.24358 33025 ft 453 kts 153°
2026-04-22 14:08 51.27064 17.26155 33336 ft 454 kts 153°
2026-04-22 14:09 51.24131 17.27940 33634 ft 454 kts 153°
2026-04-22 14:09 51.21177 17.29734 33924 ft 455 kts 153°
2026-04-22 14:09 51.18205 17.31539 34165 ft 457 kts 153°
2026-04-22 14:09 51.15240 17.33334 34410 ft 457 kts 153°
2026-04-22 14:10 51.12258 17.35137 34649 ft 458 kts 153°
2026-04-22 14:10 51.09277 17.36937 34871 ft 459 kts 154°
2026-04-22 14:10 51.06295 17.38734 35100 ft 459 kts 154°
2026-04-22 14:10 51.03298 17.40539 35327 ft 460 kts 154°
2026-04-22 14:11 51.00322 17.42329 35543 ft 461 kts 154°
2026-04-22 14:11 50.97318 17.44132 35776 ft 461 kts 154°
2026-04-22 14:11 50.94319 17.45930 35992 ft 462 kts 154°
2026-04-22 14:11 50.91308 17.47733 36180 ft 463 kts 154°
2026-04-22 14:12 50.88293 17.49537 36398 ft 463 kts 154°
2026-04-22 14:12 50.85278 17.51343 36604 ft 464 kts 154°
2026-04-22 14:12 50.82256 17.53154 36816 ft 464 kts 155°
2026-04-22 14:12 50.79232 17.54965 37017 ft 464 kts 155°
2026-04-22 14:13 50.76224 17.56756 37189 ft 465 kts 155°
2026-04-22 14:13 50.70159 17.60355 37210 ft 465 kts 155°
2026-04-22 14:14 50.64107 17.63936 37207 ft 465 kts 155°
2026-04-22 14:14 50.58042 17.67516 37205 ft 465 kts 155°
2026-04-22 14:15 50.52027 17.71056 37206 ft 466 kts 155°
2026-04-22 14:15 50.46050 17.74565 37210 ft 466 kts 155°
2026-04-22 14:16 50.39968 17.78125 37205 ft 466 kts 155°
2026-04-22 14:16 50.33880 17.81681 37219 ft 467 kts 155°
2026-04-22 14:17 50.27816 17.85214 37211 ft 467 kts 155°
2026-04-22 14:17 50.21725 17.88753 37210 ft 467 kts 156°
2026-04-22 14:18 50.15639 17.92278 37193 ft 467 kts 156°
2026-04-22 14:18 50.09544 17.95801 37200 ft 467 kts 156°
2026-04-22 14:19 50.03444 17.99008 37164 ft 471 kts 168°
2026-04-22 14:19 50.00162 17.99227 37215 ft 473 kts 180°
2026-04-22 14:19 49.96857 17.99099 37168 ft 477 kts 178°
2026-04-22 14:20 49.86904 17.98633 37194 ft 478 kts 179°
2026-04-22 14:20 49.80276 17.98259 37202 ft 478 kts 179°
2026-04-22 14:21 49.70299 17.97710 37205 ft 478 kts 179°
2026-04-22 14:22 49.60327 17.97325 37212 ft 478 kts 179°
2026-04-22 14:23 49.50535 17.96932 37195 ft 478 kts 179°
2026-04-22 14:23 49.43909 17.96665 37198 ft 478 kts 179°
2026-04-22 14:24 49.37252 17.96400 37184 ft 479 kts 179°
2026-04-22 14:24 49.30613 17.96136 37185 ft 479 kts 179°
2026-04-22 14:25 49.23949 17.95871 37184 ft 479 kts 179°
2026-04-22 14:25 49.17310 17.95608 37190 ft 478 kts 179°
2026-04-22 14:26 49.10721 17.95348 37182 ft 478 kts 179°
2026-04-22 14:26 49.04164 17.95089 37192 ft 478 kts 179°
2026-04-22 14:27 48.97540 17.93835 37190 ft 480 kts 187°
2026-04-22 14:27 48.90963 17.92288 37173 ft 479 kts 187°
2026-04-22 14:28 48.84424 17.90740 37166 ft 479 kts 187°
2026-04-22 14:28 48.77868 17.89191 37164 ft 480 kts 187°
2026-04-22 14:29 48.72994 17.88043 37155 ft 480 kts 187°
2026-04-22 14:29 48.65324 17.86240 37158 ft 480 kts 187°
2026-04-22 14:30 48.59837 17.84953 37156 ft 480 kts 187°
2026-04-22 14:30 48.53306 17.83425 37161 ft 480 kts 188°
2026-04-22 14:31 48.46702 17.81885 37171 ft 480 kts 188°
2026-04-22 14:31 48.40162 17.80363 37163 ft 480 kts 188°
2026-04-22 14:32 48.33626 17.78846 37169 ft 480 kts 188°
2026-04-22 14:32 48.27039 17.77322 37160 ft 479 kts 188°
2026-04-22 14:33 48.20437 17.75798 37159 ft 480 kts 188°
2026-04-22 14:33 48.13841 17.74279 37155 ft 479 kts 188°
2026-04-22 14:34 48.07264 17.72767 37172 ft 479 kts 188°
2026-04-22 14:34 48.00677 17.71259 37157 ft 479 kts 188°
2026-04-22 14:35 47.94083 17.69753 37160 ft 479 kts 188°
2026-04-22 14:35 47.87530 17.68259 37160 ft 480 kts 188°
2026-04-22 14:36 47.80942 17.66761 37157 ft 480 kts 188°
2026-04-22 14:36 47.74506 17.64275 37177 ft 479 kts 198°
2026-04-22 14:37 47.68131 17.61327 37157 ft 480 kts 198°
2026-04-22 14:37 47.61754 17.58372 37160 ft 480 kts 198°
2026-04-22 14:38 47.55404 17.55434 37164 ft 480 kts 198°
2026-04-22 14:38 47.49302 17.52618 37160 ft 480 kts 198°
2026-04-22 14:39 47.43171 17.49796 37152 ft 480 kts 198°
2026-04-22 14:39 47.37203 17.47055 37154 ft 480 kts 198°
2026-04-22 14:40 47.27832 17.42764 37157 ft 480 kts 198°
2026-04-22 14:40 47.21494 17.39872 37163 ft 480 kts 198°
2026-04-22 14:41 47.15155 17.36986 37169 ft 480 kts 198°
2026-04-22 14:41 47.09028 17.34202 37172 ft 480 kts 198°
2026-04-22 14:42 47.02650 17.31314 37180 ft 480 kts 198°
2026-04-22 14:42 46.96316 17.28451 37179 ft 480 kts 198°
2026-04-22 14:43 46.90288 17.25734 37176 ft 480 kts 198°
2026-04-22 14:43 46.84237 17.23012 37185 ft 479 kts 198°
2026-04-22 14:44 46.77855 17.20149 37177 ft 479 kts 198°
2026-04-22 14:44 46.71477 17.17295 37185 ft 479 kts 198°
2026-04-22 14:45 46.65096 17.14445 37187 ft 480 kts 198°
2026-04-22 14:45 46.58732 17.11611 37180 ft 480 kts 198°
2026-04-22 14:46 46.52346 17.08774 37177 ft 480 kts 198°
2026-04-22 14:46 46.45962 17.05945 37177 ft 480 kts 199°
2026-04-22 14:47 46.39591 17.03129 37181 ft 480 kts 199°
2026-04-22 14:47 46.33194 17.00307 37181 ft 480 kts 199°
2026-04-22 14:48 46.26857 16.97517 37182 ft 479 kts 199°
2026-04-22 14:48 46.20367 16.95264 37214 ft 480 kts 193°
2026-04-22 14:49 46.13810 16.93408 37180 ft 480 kts 193°
2026-04-22 14:49 46.07244 16.91568 37190 ft 480 kts 193°
2026-04-22 14:50 46.00699 16.89739 37187 ft 479 kts 193°
2026-04-22 14:50 45.94151 16.87914 37189 ft 479 kts 193°
2026-04-22 14:51 45.87662 16.86110 37190 ft 479 kts 193°
2026-04-22 14:51 45.81119 16.84295 37186 ft 479 kts 193°
2026-04-22 14:52 45.74579 16.82485 37191 ft 479 kts 193°
2026-04-22 14:52 45.68033 16.80677 37187 ft 478 kts 193°
2026-04-22 14:53 45.61605 16.78908 37188 ft 478 kts 193°
2026-04-22 14:53 45.55062 16.77110 37193 ft 478 kts 193°
2026-04-22 14:54 45.48516 16.75315 37194 ft 479 kts 193°
2026-04-22 14:54 45.41993 16.73531 37195 ft 478 kts 193°
2026-04-22 14:55 45.35455 16.71748 37200 ft 479 kts 193°
2026-04-22 14:55 45.28903 16.69963 37201 ft 478 kts 194°
2026-04-22 14:56 45.22410 16.68200 37203 ft 478 kts 194°
2026-04-22 14:56 45.15805 16.66698 37210 ft 479 kts 192°
2026-04-22 14:57 45.09225 16.65234 37200 ft 479 kts 192°
2026-04-22 14:57 45.02633 16.63760 37199 ft 479 kts 192°
2026-04-22 14:58 44.96092 16.62300 37198 ft 479 kts 192°
2026-04-22 14:58 44.89536 16.60840 37204 ft 478 kts 193°
2026-04-22 14:59 44.83019 16.59392 37194 ft 477 kts 192°
2026-04-22 14:59 44.76448 16.57936 37187 ft 478 kts 192°
2026-04-22 15:00 44.69887 16.56485 37178 ft 477 kts 193°
2026-04-22 15:00 44.63350 16.55043 37182 ft 477 kts 193°
2026-04-22 15:01 44.56779 16.53596 37177 ft 477 kts 193°
2026-04-22 15:01 44.50227 16.52157 37166 ft 477 kts 193°
2026-04-22 15:02 44.43687 16.50724 37159 ft 477 kts 193°
2026-04-22 15:02 44.37131 16.49291 37134 ft 476 kts 193°
2026-04-22 15:03 44.30624 16.47871 37131 ft 476 kts 194°
2026-04-22 15:03 44.24072 16.46446 37133 ft 476 kts 194°
2026-04-22 15:04 44.17527 16.45023 37094 ft 476 kts 194°
2026-04-22 15:04 44.10974 16.43604 37099 ft 476 kts 194°
2026-04-22 15:05 44.04435 16.42190 37095 ft 475 kts 194°
2026-04-22 15:05 43.97902 16.40781 37080 ft 475 kts 194°
2026-04-22 15:06 43.91383 16.39378 37072 ft 475 kts 194°
2026-04-22 15:06 43.84848 16.37975 37065 ft 474 kts 194°
2026-04-22 15:07 43.78370 16.36586 37040 ft 474 kts 195°
2026-04-22 15:07 43.71863 16.35196 37047 ft 473 kts 195°
2026-04-22 15:08 43.65370 16.33811 37053 ft 474 kts 195°
2026-04-22 15:08 43.58844 16.32420 37045 ft 474 kts 195°
2026-04-22 15:09 43.52320 16.31034 37040 ft 474 kts 195°
2026-04-22 15:09 43.45840 16.29382 37050 ft 472 kts 197°
2026-04-22 15:10 43.39391 16.27681 37038 ft 472 kts 197°
2026-04-22 15:10 43.32975 16.26008 37041 ft 473 kts 197°
2026-04-22 15:11 43.26513 16.24327 37040 ft 472 kts 197°
2026-04-22 15:11 43.20069 16.22654 37037 ft 472 kts 198°
2026-04-22 15:12 43.13616 16.20983 37041 ft 472 kts 198°
2026-04-22 15:12 43.07154 16.19313 37044 ft 472 kts 197°
2026-04-22 15:13 43.00701 16.17648 37034 ft 471 kts 198°
2026-04-22 15:13 42.94274 16.15994 37043 ft 471 kts 198°
2026-04-22 15:14 42.87841 16.14342 37049 ft 471 kts 198°
2026-04-22 15:14 42.81412 16.12694 37053 ft 469 kts 199°
2026-04-22 15:15 42.74990 16.11052 37049 ft 469 kts 199°
2026-04-22 15:15 42.68586 16.09418 37033 ft 469 kts 199°
2026-04-22 15:16 42.62169 16.07783 37050 ft 469 kts 199°
2026-04-22 15:16 42.55797 16.06164 37058 ft 469 kts 199°
2026-04-22 15:17 42.49355 16.04639 37021 ft 472 kts 197°
2026-04-22 15:17 42.42887 16.03289 37061 ft 471 kts 198°
2026-04-22 15:18 42.36420 16.01913 37061 ft 471 kts 198°
2026-04-22 15:18 42.29939 16.00536 37034 ft 471 kts 198°
2026-04-22 15:19 42.24514 15.99385 37046 ft 471 kts 199°
2026-04-22 15:19 42.18106 15.98028 37067 ft 471 kts 199°
2026-04-22 15:20 42.11631 15.96660 37068 ft 471 kts 199°
2026-04-22 15:20 42.05161 15.95295 37061 ft 469 kts 199°
2026-04-22 15:21 41.98713 15.93938 37063 ft 469 kts 199°
2026-04-22 15:21 41.92280 15.92587 37049 ft 469 kts 199°
2026-04-22 15:22 41.85835 15.91237 37044 ft 469 kts 199°
2026-04-22 15:22 41.79394 15.89889 37068 ft 469 kts 199°
2026-04-22 15:23 41.72960 15.88546 37049 ft 468 kts 199°
2026-04-22 15:23 41.66516 15.87204 37082 ft 469 kts 199°
2026-04-22 15:24 41.60078 15.85866 37087 ft 469 kts 199°
2026-04-22 15:24 41.53628 15.84527 37074 ft 469 kts 199°
2026-04-22 15:25 41.47156 15.83731 37096 ft 478 kts 190°
2026-04-22 15:25 41.40512 15.83582 37069 ft 476 kts 190°
2026-04-22 15:26 41.33867 15.83442 37070 ft 477 kts 190°
2026-04-22 15:26 41.27236 15.83305 37064 ft 475 kts 189°
2026-04-22 15:27 41.20685 15.83169 37069 ft 474 kts 190°
2026-04-22 15:27 41.14099 15.83033 37071 ft 474 kts 190°
2026-04-22 15:28 41.07496 15.82898 37054 ft 473 kts 189°
2026-04-22 15:28 41.00946 15.82762 37067 ft 471 kts 189°
2026-04-22 15:29 40.94414 15.82628 37083 ft 470 kts 189°
2026-04-22 15:30 40.84592 15.82427 37079 ft 469 kts 189°
2026-04-22 15:30 40.78062 15.82293 37065 ft 469 kts 189°
2026-04-22 15:31 40.71558 15.82160 37087 ft 469 kts 189°
2026-04-22 15:31 40.65034 15.82028 37054 ft 468 kts 189°
2026-04-22 15:32 40.58532 15.81896 37057 ft 468 kts 189°
2026-04-22 15:32 40.52019 15.81763 37062 ft 467 kts 189°
2026-04-22 15:33 40.45569 15.81633 37032 ft 467 kts 189°
2026-04-22 15:33 40.39075 15.81502 37047 ft 467 kts 189°
2026-04-22 15:34 40.32561 15.81370 37029 ft 467 kts 189°
2026-04-22 15:34 40.26067 15.81240 37024 ft 468 kts 189°
2026-04-22 15:34 40.22836 15.81176 36211 ft 468 kts 188°
2026-04-22 15:35 40.19541 15.81108 35179 ft 476 kts 188°
2026-04-22 15:35 40.16203 15.81041 34347 ft 480 kts 188°
2026-04-22 15:35 40.12862 15.80974 33638 ft 480 kts 188°
2026-04-22 15:35 40.09576 15.80909 33046 ft 477 kts 189°
2026-04-22 15:36 40.06271 15.80843 32504 ft 472 kts 189°
2026-04-22 15:36 40.03004 15.80779 31955 ft 468 kts 188°
2026-04-22 15:36 39.99745 15.80754 31381 ft 467 kts 188°
2026-04-22 15:36 39.96525 15.80735 30786 ft 466 kts 188°
2026-04-22 15:37 39.93285 15.80713 30258 ft 463 kts 188°
2026-04-22 15:37 39.90073 15.80690 29660 ft 461 kts 188°
2026-04-22 15:37 39.86864 15.80667 29032 ft 458 kts 188°
2026-04-22 15:37 39.83689 15.80644 28519 ft 454 kts 188°
2026-04-22 15:38 39.80541 15.80623 27941 ft 451 kts 187°
2026-04-22 15:38 39.74326 15.80578 26884 ft 444 kts 188°
2026-04-22 15:38 39.71259 15.80556 26347 ft 442 kts 188°
2026-04-22 15:39 39.68194 15.80534 25815 ft 439 kts 188°
2026-04-22 15:39 39.65142 15.80512 25287 ft 437 kts 188°
2026-04-22 15:39 39.62111 15.80491 24761 ft 435 kts 188°
2026-04-22 15:39 39.59197 15.80470 24264 ft 433 kts 188°
2026-04-22 15:40 39.56190 15.80449 23751 ft 431 kts 188°
2026-04-22 15:40 39.53196 15.80428 23182 ft 429 kts 188°
2026-04-22 15:40 39.50221 15.80407 22644 ft 426 kts 188°
2026-04-22 15:40 39.47281 15.80386 22149 ft 422 kts 188°
2026-04-22 15:41 39.44343 15.80366 21676 ft 419 kts 187°
2026-04-22 15:41 39.41446 15.80345 21202 ft 415 kts 187°
2026-04-22 15:41 39.38563 15.80325 20716 ft 412 kts 187°
2026-04-22 15:41 39.35739 15.80307 20262 ft 400 kts 187°
2026-04-22 15:42 39.33004 15.80287 19859 ft 386 kts 188°
2026-04-22 15:42 39.30351 15.80333 19419 ft 380 kts 180°
2026-04-22 15:42 39.27788 15.81206 18985 ft 384 kts 161°
2026-04-22 15:42 39.25493 15.83046 18578 ft 397 kts 145°
2026-04-22 15:43 39.23332 15.85307 18125 ft 403 kts 144°
2026-04-22 15:43 39.21165 15.87615 17655 ft 405 kts 143°
2026-04-22 15:43 39.19112 15.90126 17131 ft 408 kts 137°
2026-04-22 15:43 39.17116 15.92719 16622 ft 408 kts 137°
2026-04-22 15:44 39.15085 15.95325 15809 ft 411 kts 137°
2026-04-22 15:44 39.13119 15.97837 15372 ft 397 kts 137°
2026-04-22 15:44 39.11186 16.00296 15009 ft 384 kts 138°
2026-04-22 15:44 39.09315 16.02673 14621 ft 372 kts 138°
2026-04-22 15:45 39.07490 16.04991 14248 ft 366 kts 138°
2026-04-22 15:45 39.05650 16.07326 13884 ft 375 kts 137°
2026-04-22 15:45 39.03792 16.09681 13466 ft 379 kts 137°
2026-04-22 15:45 39.01915 16.12059 13067 ft 377 kts 137°
2026-04-22 15:46 39.00051 16.14418 12689 ft 375 kts 137°
2026-04-22 15:46 38.98200 16.16760 12297 ft 372 kts 137°
2026-04-22 15:46 38.96361 16.19083 11912 ft 369 kts 137°
2026-04-22 15:46 38.94546 16.21377 11525 ft 365 kts 137°
2026-04-22 15:47 38.92736 16.23662 11166 ft 363 kts 137°
2026-04-22 15:47 38.90955 16.25937 10825 ft 357 kts 133°
2026-04-22 15:47 38.89614 16.28533 10623 ft 340 kts 118°
2026-04-22 15:47 38.88502 16.31112 10511 ft 322 kts 119°
2026-04-22 15:48 38.87442 16.33555 10382 ft 305 kts 119°
2026-04-22 15:48 38.86436 16.35884 10237 ft 293 kts 119°
2026-04-22 15:48 38.85439 16.38195 10131 ft 303 kts 119°
2026-04-22 15:48 38.84400 16.40603 9983 ft 311 kts 119°
2026-04-22 15:49 38.83348 16.43039 9985 ft 314 kts 119°
2026-04-22 15:49 38.82286 16.45500 9987 ft 315 kts 118°
2026-04-22 15:49 38.81224 16.47955 9994 ft 315 kts 118°
2026-04-22 15:49 38.80166 16.50403 9999 ft 314 kts 118°
2026-04-22 15:50 38.79107 16.52853 9998 ft 314 kts 117°
2026-04-22 15:50 38.78399 16.55475 9984 ft 309 kts 96°
2026-04-22 15:50 38.78090 16.58165 9995 ft 303 kts 95°
2026-04-22 15:50 38.78161 16.60782 9986 ft 290 kts 69°
2026-04-22 15:51 38.79004 16.62949 10008 ft 256 kts 44°
2026-04-22 15:51 38.80268 16.64350 9825 ft 227 kts 16°
2026-04-22 15:51 38.81710 16.64735 9345 ft 209 kts 347°
2026-04-22 15:51 38.83052 16.64205 8845 ft 200 kts 326°
2026-04-22 15:52 38.84238 16.63264 8324 ft 202 kts 324°
2026-04-22 15:52 38.85349 16.62183 7819 ft 200 kts 306°
2026-04-22 15:52 38.85917 16.60589 7443 ft 197 kts 284°
2026-04-22 15:52 38.86226 16.58858 6897 ft 202 kts 284°
2026-04-22 15:53 38.86514 16.57095 6517 ft 201 kts 282°
2026-04-22 15:53 38.86772 16.55350 6217 ft 196 kts 281°
2026-04-22 15:53 38.87008 16.53642 5793 ft 194 kts 281°
2026-04-22 15:53 38.87237 16.51919 5270 ft 199 kts 279°
2026-04-22 15:54 38.87201 16.50093 4519 ft 214 kts 250°
2026-04-22 15:54 38.86300 16.48545 3852 ft 225 kts 215°
2026-04-22 15:54 38.84885 16.47921 3782 ft 208 kts 182°
2026-04-22 15:54 38.83462 16.48255 3831 ft 213 kts 155°
2026-04-22 15:55 38.82294 16.49412 3827 ft 214 kts 125°
2026-04-22 15:55 38.81736 16.51158 3810 ft 214 kts 98°
2026-04-22 15:55 38.81494 16.53055 3842 ft 217 kts 100°
2026-04-22 15:55 38.81210 16.54953 3822 ft 217 kts 101°
2026-04-22 15:56 38.80914 16.56844 3829 ft 216 kts 101°
2026-04-22 15:56 38.80635 16.58734 3816 ft 216 kts 94°
2026-04-22 15:56 38.80901 16.60581 3767 ft 211 kts 60°
2026-04-22 15:56 38.81890 16.61924 3794 ft 209 kts 28°
2026-04-22 15:57 38.83276 16.62415 3810 ft 209 kts 358°
2026-04-22 15:57 38.84655 16.61976 3794 ft 210 kts 328°
2026-04-22 15:57 38.85697 16.60702 3823 ft 209 kts 297°
2026-04-22 15:57 38.86168 16.58953 3824 ft 209 kts 280°
2026-04-22 15:58 38.86487 16.57124 3832 ft 211 kts 282°
2026-04-22 15:58 38.86813 16.55281 3832 ft 212 kts 280°
2026-04-22 15:58 38.87097 16.53426 3816 ft 212 kts 278°
2026-04-22 15:58 38.87350 16.51568 3765 ft 212 kts 277°
2026-04-22 15:59 38.87582 16.49697 3550 ft 213 kts 276°
2026-04-22 15:59 38.87808 16.47809 3343 ft 214 kts 277°
2026-04-22 15:59 38.88029 16.45932 3125 ft 210 kts 276°
2026-04-22 15:59 38.88244 16.44088 2819 ft 206 kts 275°
2026-04-22 16:00 38.88382 16.42915 2651 ft 197 kts 275°
2026-04-22 16:00 38.88644 16.40645 2314 ft 189 kts 276°
2026-04-22 16:00 38.88834 16.39014 2065 ft 180 kts 276°
2026-04-22 16:00 38.89015 16.37436 1832 ft 178 kts 276°
2026-04-22 16:01 38.89197 16.35862 1601 ft 178 kts 276°
2026-04-22 16:01 38.89378 16.34305 1384 ft 175 kts 276°
2026-04-22 16:01 38.89550 16.32802 1127 ft 161 kts 276°
2026-04-22 16:01 38.89702 16.31498 967 ft 144 kts 277°
2026-04-22 16:02 38.89851 16.30233 745 ft 143 kts 277°
2026-04-22 16:02 38.89992 16.28998 549 ft 139 kts 276°
2026-04-22 16:02 38.90130 16.27751 359 ft 141 kts 276°
2026-04-22 16:02 38.90268 16.26504 153 ft 140 kts 278°
2026-04-22 16:03 38.90419 16.25290 38 ft 130 kts 276°
2026-04-22 16:03 38.90519 16.24392 33 ft 69 kts 278°
2026-04-22 16:03 38.90579 16.23931 32 ft 42 kts 279°
2026-04-22 16:03 38.90622 16.23661 36 ft 19 kts 300°
2026-04-22 16:04 38.90711 16.23530 36 ft 20 kts 313°
2026-04-22 16:04 38.90825 16.23522 34 ft 21 kts 67°
2026-04-22 16:04 38.90823 16.23710 34 ft 22 kts 94°
2026-04-22 16:04 38.90802 16.23899 34 ft 22 kts 98°
2026-04-22 16:05 38.90786 16.24037 34 ft 24 kts 99°
2026-04-22 16:05 38.90824 16.24238 34 ft 16 kts 65°
2026-04-22 16:05 38.90824 16.24336 34 ft 11 kts 98°
2026-04-22 16:05 38.90811 16.24445 34 ft 13 kts 98°
2026-04-22 16:06 38.90831 16.24511 34 ft 8 kts 15°
2026-04-22 16:06 38.90869 16.24533 34 ft 2 kts 51°
2026-04-22 16:06 38.90871 16.24537 34 ft 0 kts 51°